Regional Weather Roundup
Issued by NWS

Home | Current Version | Previous Version | Text Only | Print | Product List | Glossary On
Versions: 1 2 3 4 5 6 7 8 9 10 11 12 13 14 15 16 17 18 19 20 21 22 23 24 25 26 27
000
ASUS45 KBOU 220710
RWRCO

WEATHER ROUNDUP FOR COLORADO
NATIONAL WEATHER SERVICE DENVER/BOULDER CO
1200 AM MST WED NOV 22 2017

NOTE: "FAIR" INDICATES FEW OR NO CLOUDS BELOW 12000 FEET WITH NO
SIGNIFICANT WEATHER AND/OR OBSTRUCTIONS TO VISIBILITY.

COZ001>005-013-030-031-220800-
...NORTHWEST COLORADO...

CITY           SKY/WX    TMP DP  RH WIND       PRES   REMARKS
CRAIG          FAIR      35  31  85 CALM      30.42F
HAYDEN         FAIR      38  34  85 E9        30.44S
MEEKER         FAIR      38  32  79 E3        30.42F
RABBIT EARS PA FOG      N/A N/A N/A W14       30.50R VSB 1/2
STEAMBOAT SPGS CLOUDY    33  33  99 CALM      30.44S
WALDEN         FAIR      34  28  80 SE7       30.43F WCI  28
$$

COZ006>008-011-220800-
...WEST CENTRAL VALLEYS...

CITY           SKY/WX    TMP DP  RH WIND       PRES   REMARKS
GRAND JUNCTION FAIR      42  27  55 E5        30.41S
MONTROSE       FAIR      34  29  82 S7        30.46R WCI  28
EAGLE          FAIR      32  28  85 CALM      30.48F
RIFLE          FAIR      34  31  88 NE3       30.44F
DELTA          FAIR      38  26  61 CALM      30.44S
NUCLA          FAIR      37  27  65 E7        30.46R
$$

COZ017>023-064>068-220800-
...SOUTHWEST COLORADO...

CITY           SKY/WX    TMP DP  RH WIND       PRES   REMARKS
DURANGO        FAIR      27  18  69 CALM      30.39S
CORTEZ         FAIR      32  25  75 NE7       30.39S WCI  26
PAGOSA SPRINGS FAIR      31  21  66 CALM      30.43S
TELLURIDE      FAIR      34  24  66 CALM      30.52S
WOLF CREEK PAS CLOUDY    32  10  40 NW7       30.61F WCI  26
$$

COZ009-010-012-014-032>034-037-058>063-220800-
...CENTRAL COLORADO...

CITY           SKY/WX    TMP DP  RH WIND       PRES   REMARKS
ASPEN          FAIR      34  28  79 S6        30.47F WCI  29
BUENA VISTA    FAIR      40  24  52 NW13      30.40S
COPPER MTN     CLOUDY    28  25  86 MISG      30.55F
BERTHOUD PASS  CLOUDY    21  10  63 N10G29    30.51F WCI  10
COTTONWOOD PAS FAIR      41  25  52 W9G20     30.44S
GUNNISON       FAIR      26  23  88 E3        30.48
KREMMLING      CLOUDY    37  34  87 CALM      30.47S
LEADVILLE      FAIR      27  21  78 N10       30.48F WCI  17
MONARCH PASS   CLOUDY    25  21  86 SW20G26   30.62R WCI  11
SALIDA         FAIR      37  27  68 NW9       30.47S
SUNLIGHT       MOCLDY    30  27  86 CALM      30.57F
WILKERSON PASS MOCLDY    32  12  43 NW13G21   30.47R WCI  22
$$

COZ069>075-220800-
...SAN LUIS VALLEY/SANGRE DE CRISTO MOUNTAINS...

CITY           SKY/WX    TMP DP  RH WIND       PRES   REMARKS
ALAMOSA        FAIR      24  16  71 S6        30.42S WCI  17
DEL NORTE      FAIR      34  18  51 W8        30.44S WCI  28
LA VETA PASS   FAIR      32  23  69 SW30G39     N/A  WCI  18
SAGUACHE       FAIR      34  27  75 CALM      30.43R
$$

COZ035-036-038>040-220800-
...NORTHERN COLORADO FRONT RANGE...

CITY           SKY/WX    TMP DP  RH WIND       PRES   REMARKS
DENVER INTL AP MOCLDY    34  30  85 W9        30.26S WCI  27
DMNS CITY PARK   N/A     37  33  89 SE8G17    30.25F
AURORA         PTCLDY    39  30  71 S12       30.26F
FRONT RANGE AP FAIR      37  33  85 SW7       30.27S
ERIE MUNI ARPT FAIR      30  28  95 CALM      30.31F
BOULDER MUN AP FAIR      34  32  93 W3        30.26S
CENTENNIAL     FAIR      38  30  73 S8        30.26F
BROOMFIELD     FAIR      36  32  87 CALM      30.26F
FORT COLLINS   FAIR      32  30  92 CALM      30.26F
LONGMONT       FAIR      33  31  92 CALM      30.27F
$$

COZ041-046-047-076>085-087-088-220800-
...PIKES PEAK/PALMER DIVIDE AND SOUTHERN FOOTHILLS...

CITY           SKY/WX    TMP DP  RH WIND       PRES   REMARKS
COLO. SPRINGS  FAIR      30  25  81 NE7       30.34F WCI  23
A. F. ACADEMY  FAIR      26  25  95 N7        30.32F WCI  18
SCHRIEVER AFB  FAIR      31  26  81 N3        30.34F
CHEYENNE MTN   FAIR      34  30  84 CALM      30.27F
ELLICOTT         N/A    N/A N/A N/A CALM      30.32F
FALCON         FAIR      29  26  89 W7        30.35S WCI  22
FORT CARSON    FAIR      30  27  90 N8        30.32S WCI  22
LIMON          FAIR      30  26  85 SE7       30.32S WCI  23
MONUMENT HILL  FAIR      32  28  86 S12       30.33R WCI  23
CANON CITY     FAIR      36  32  87 W7        30.31S
WALSENBURG     FAIR      36  32  87 NW5       30.32S
TRINIDAD       FAIR      38  32  79 W15       30.33F
$$

COZ042>045-048>051-090-091-220800-
...NORTHEAST COLORADO...

CITY           SKY/WX    TMP DP  RH WIND       PRES   REMARKS
GREELEY ARPT   FAIR      29  27  92 NW3       30.28R
AKRON          FAIR      38  27  64 SW18      30.25F
BURLINGTON     FAIR      30  24  78 SW13      30.30F WCI  20
WRAY           NOT AVBL
YUMA           FAIR      28  27  93 SW6       30.26F WCI  22
STERLING       FAIR      30  27  86 S5        30.26S WCI  25
HOLYOKE        FAIR      34  28  80 SW6       30.28S WCI  29
FORT MORGAN    FAIR      33  25  72 SW5       30.26F WCI  28
$$

COZ086-089-092>099-220800-
...SOUTHEAST COLORADO...

CITY           SKY/WX    TMP DP  RH WIND       PRES   REMARKS
PUEBLO         FAIR      30  25  81 N3        30.32F
LA JUNTA       FAIR      30  24  78 NW6       30.33F WCI  24
LAMAR          FAIR      25  20  81 CALM      30.33F
SPRINGFIELD      N/A     25  23  92 SW10      30.36S WCI  15
$$




USA.gov is the U.S. government's official web portal to all federal, state and local government web resources and services.